This is the latest recevied weather packets stored in our database for station/object N8XHB. If no packets are shown the sender has not sent any weather packets the latest 1 day(s).
| Time | Temp. | Humidity | Pressure | Rain* | Wind** | Luminosity | Snow |
|---|---|---|---|---|---|---|---|
| 1778093769 | 12.22° C | 34% | 1013.4 hPa | 0 mm | - | 311 W/m² | - |
| 1778093465 | 12.78° C | 35% | 1013.3 hPa | 0 mm | - | 349 W/m² | - |
| 1778092860 | 12.78° C | 32% | 1013.2 hPa | 0 mm | - | 463 W/m² | - |
| 1778092556 | 12.22° C | 37% | 1013.4 hPa | 0 mm | - | 1099 W/m² | - |
| 1778091950 | 12.22° C | 33% | 1013.1 hPa | 0 mm | - | 236 W/m² | - |
| 1778091647 | 12.22° C | 31% | 1013.2 hPa | 0 mm | - | 476 W/m² | - |
| 1778091345 | 11.67° C | 36% | 1013.1 hPa | 0 mm | - | 389 W/m² | - |
| 1778090738 | 12.22° C | 34% | 1013.2 hPa | 0 mm | - | 332 W/m² | - |
| 1778089222 | 11.67° C | 37% | 1013.3 hPa | 0 mm | - | 279 W/m² | - |
| 1778088920 | 11.67° C | 33% | 1013.2 hPa | 0 mm | - | 262 W/m² | - |
| 1778088010 | 11.11° C | 39% | 1013.5 hPa | 0 mm | - | 457 W/m² | - |
| 1778087708 | 11.11° C | 36% | 1013.4 hPa | 0 mm | - | 278 W/m² | - |
| 1778086800 | 12.22° C | 37% | 1013.6 hPa | 0 mm | - | 254 W/m² | - |
| 1778086194 | 12.22° C | 35% | 1013.5 hPa | 0 mm | - | 691 W/m² | - |
| 1778085891 | 11.67° C | 37% | 1013.6 hPa | 0 mm | - | 306 W/m² | - |
| 1778084072 | 12.22° C | 35% | 1013.6 hPa | 0 mm | - | 830 W/m² | - |
| 1778083769 | 12.22° C | 36% | 1013.7 hPa | 0 mm | - | 936 W/m² | - |
| 1778082861 | 11.11° C | 36% | 1013.8 hPa | 0 mm | - | 675 W/m² | - |
| 1778081440 | 12.22° C | 36% | 1013.6 hPa | 0 mm | - | 664 W/m² | - |
| 1778081137 | 12.22° C | 36% | 1013.7 hPa | 0 mm | - | 458 W/m² | - |
| 1778080835 | 12.78° C | 35% | 1013.8 hPa | 0 mm | - | 524 W/m² | - |
| 1778079926 | 11.11° C | 37% | 1013.8 hPa | 0 mm | - | 617 W/m² | - |
| 1778079623 | 11.67° C | 35% | 1013.6 hPa | 0 mm | - | 656 W/m² | - |
| 1778076598 | 11.11° C | 39% | 1013 hPa | 0 mm | - | 545 W/m² | - |
| 1778075689 | 11.11° C | 43% | 1013.2 hPa | 0 mm | - | 367 W/m² | - |
* Rain latest hour (hover to see other rain measurements)
** Current wind speed in m/s (hover to see current wind gust speed)